Home > Weather > Langenhagen > Past weeks

Flag for Germany Weather for the Past 2 Weeks in Langenhagen, Lower Saxony, Germany

Now
48 °F

Sunny.


Feels Like: 43 °F
Forecast: 44 / 50 °F
Wind: 13 mph from South

Location: Hannover

Current Time: Feb 7, 2016 at 9:51:08 AM

Latest Report: Feb 7, 2016 at 9:20 AM


Visibility: 10 mi

Pressure: 29.50 "Hg

Humidity: 71%

Dew point: 39 °F

Location of LangenhagenLocation

Historic Weather in Langenhagen — Graph

°F

Langenhagen Temperature Yesterday

Maximum temperature yesterday: 52 °F (at 12:20 PM)
Minimum temperature yesterday: 46 °F (at 6:20 AM)
Average temperature yesterday: 49 °F

High & Low Weather Summary for the Past Weeks

 TemperatureHumidityPressure
High54 °F (Jan 25, 1:20 PM)100% (Jan 23, 8:20 AM)30.51 "Hg (Jan 23, 8:20 AM)
Low36 °F (Jan 30, 7:20 PM)66% (Jan 28, 1:20 PM)29.50 "Hg (Feb 7, 6:20 AM)
Average45 °F86%30.01 "Hg
* Reported Jan 23 8:20 AM — Feb 7 8:20 AM, Langenhagen, Weather by CustomWeather, © 2016

Note: Actual official high and low records may vary slightly from our data, if they occured in-between our weather recording intervals... More about our weather records

Advertising

Langenhagen Weather History for the Previous 24 Hours

 ConditionsComfort  
Time TempWeatherWind HumidityBarometerVisibility
8:20 AM
Sun, Feb 7
48 °FSunny.15 mph71%29.50 "Hg10 mi
7:50 AM48 °FClear.13 mph71%29.50 "Hg10 mi
7:20 AM46 °FClear.10 mph76%29.50 "Hg10 mi
6:50 AM48 °FClear.13 mph71%29.50 "Hg10 mi
6:20 AM48 °FClear.14 mph71%29.50 "Hg10 mi
5:50 AM48 °FClear.13 mph71%29.53 "Hg10 mi
5:20 AM48 °FClear.13 mph71%29.53 "Hg10 mi
4:20 AM50 °FClear.14 mph67%29.56 "Hg10 mi
3:50 AM50 °FClear.14 mph67%29.56 "Hg10 mi
3:20 AM50 °FClear.12 mph67%29.56 "Hg10 mi
2:20 AM46 °FPassing clouds.5 mph76%29.59 "HgN/A
1:50 AM46 °FPassing clouds.3 mph76%29.59 "HgN/A
1:20 AM46 °FClear.7 mph76%29.62 "Hg10 mi
12:50 AM46 °FClear.7 mph76%29.62 "Hg10 mi
12:20 AM48 °FClear.13 mph71%29.65 "Hg10 mi
11:50 PM
Sat, Feb 6
48 °FClear.14 mph71%29.65 "Hg10 mi
11:20 PM48 °FClear.13 mph71%29.65 "Hg10 mi
10:50 PM48 °FClear.14 mph71%29.65 "Hg10 mi
9:50 PM50 °FPassing clouds.5 mph71%29.68 "HgN/A
9:20 PM52 °FPassing clouds.14 mph67%29.68 "HgN/A
8:50 PM50 °FClear.16 mph71%29.68 "Hg10 mi
8:20 PM50 °FClear.16 mph71%29.71 "Hg10 mi
7:50 PM50 °FClear.15 mph71%29.71 "Hg10 mi
7:20 PM50 °FClear.13 mph71%29.71 "Hg10 mi
6:50 PM50 °FPassing clouds.14 mph71%29.74 "HgN/A
6:20 PM50 °FPassing clouds.10 mph76%29.74 "HgN/A
5:50 PM48 °FClear.7 mph82%29.74 "Hg10 mi
5:20 PM50 °FPassing clouds.7 mph76%29.77 "HgN/A
4:50 PM50 °FPartly sunny.9 mph76%29.77 "HgN/A
4:20 PM52 °FBroken clouds.12 mph72%29.77 "HgN/A
3:50 PM52 °FBroken clouds.9 mph72%29.77 "HgN/A
3:20 PM52 °FBroken clouds.9 mph77%29.77 "HgN/A
2:50 PM52 °FPartly sunny.12 mph77%29.80 "HgN/A
2:20 PM52 °FPartly sunny.13 mph77%29.80 "HgN/A
1:50 PM52 °FPartly sunny.15 mph77%29.83 "HgN/A
1:20 PM52 °FScattered clouds.14 mph77%29.83 "HgN/A
12:50 PM52 °FScattered clouds.17 mph77%29.83 "HgN/A
12:20 PM52 °FScattered clouds.16 mph77%29.86 "HgN/A
11:50 AM50 °FBroken clouds.16 mph76%29.86 "HgN/A
11:20 AM48 °FBroken clouds.12 mph82%29.89 "HgN/A
10:50 AM48 °FPassing clouds.12 mph82%29.89 "HgN/A
10:20 AM48 °FSunny.15 mph82%29.89 "Hg10 mi
9:50 AM46 °FSunny.9 mph87%29.92 "Hg10 mi
9:20 AM46 °FSunny.10 mph87%29.92 "Hg10 mi
Weather by CustomWeather, © 2016

See weather overviewHow to use our weather pages